Theta_e
307 308 308 309 316 319 319 319 319 321 320 321 322 319 317 320 323 319 325 332 333 335 336 337 337 337 339 342 343 343 342 345 347 347 350 344 342 345 345 346 346 344 342 340 340 339 338 335 330 327 326 325 327 333 338 340 340 338 338 337 333 332 334 334 333 333 331 330 330 329 330 330 331 334 333 331 330 331 333 334 332 332 332 332 331 330 329 329 329 330 326 319 317 315 314 314 314
307 310 311 311 316 319 320 319 322 322 319 322 321 319 320 321 323 321 325 331 332 335 337 337 338 338 339 339 340 343 345 344 341 343 345 342 343 345 345 346 345 344 341 340 340 339 338 334 330 327 326 326 327 330 335 339 340 339 338 338 335 331 334 334 333 333 331 331 330 328 329 330 331 333 334 333 332 332 333 334 333 333 333 332 332 330 329 330 330 331 328 321 316 315 314 313 314
308 313 313 315 317 317 319 320 326 323 319 323 321 321 322 320 321 326 329 331 334 336 336 336 336 337 338 340 340 344 346 344 342 342 344 344 344 345 347 346 344 344 341 340 340 339 338 334 330 327 326 327 328 329 331 336 339 340 339 339 337 332 333 334 333 333 332 331 330 328 328 329 331 331 333 334 334 334 334 334 333 333 332 332 331 330 328 330 331 332 331 324 317 314 313 314 317
309 314 315 317 317 317 321 324 331 326 321 322 322 323 323 324 325 327 329 331 333 333 333 333 334 336 337 339 339 343 345 344 343 342 345 346 344 345 346 345 344 342 340 340 339 338 338 334 330 328 326 328 329 329 330 332 336 338 338 339 338 333 332 333 333 333 332 332 331 329 327 327 330 332 332 333 334 334 335 334 333 332 332 331 330 330 329 329 331 333 332 328 318 313 314 319 323
311 316 316 319 319 319 321 323 328 325 322 324 322 323 324 329 329 326 328 330 331 332 332 332 333 335 337 338 339 343 344 344 343 341 344 346 343 345 345 344 344 342 340 340 339 338 337 333 330 327 326 328 330 331 331 331 332 335 336 338 339 335 332 333 333 333 332 332 331 330 328 326 328 332 332 333 334 335 335 335 334 333 332 330 329 329 328 327 330 333 333 330 321 313 317 323 328
315 317 318 318 319 319 321 324 326 323 322 323 321 321 321 323 327 325 326 330 330 331 332 332 334 335 339 339 340 343 343 342 342 341 342 344 344 345 344 344 342 342 341 340 339 338 336 333 330 328 326 328 330 332 333 333 333 334 335 337 339 337 334 333 333 333 332 332 331 330 329 326 326 330 332 331 332 333 334 335 334 332 332 330 329 329 326 324 327 333 333 330 324 314 320 328 330
317 317 317 318 319 318 324 327 325 324 322 320 319 320 319 318 324 326 328 329 329 331 331 333 335 337 338 339 342 342 340 340 341 340 341 343 345 344 343 343 342 342 341 340 339 338 337 334 331 330 327 327 329 332 335 336 337 336 335 338 339 338 335 334 333 332 332 331 331 330 330 328 326 328 331 331 329 328 330 332 333 332 332 330 329 327 324 322 323 331 332 330 327 316 323 331 331
317 317 316 318 321 318 322 325 322 323 322 320 318 318 318 318 323 327 328 329 329 329 330 333 333 338 339 340 343 342 338 338 338 339 341 342 343 343 343 342 341 342 341 340 339 338 337 334 333 331 328 327 328 332 335 336 339 338 337 340 340 339 336 334 334 333 332 331 332 331 330 328 328 328 330 331 329 325 324 325 327 331 331 329 328 325 322 321 321 330 331 328 328 319 319 328 330
316 317 317 319 323 320 320 321 319 320 319 319 318 317 318 318 321 324 327 327 328 327 331 333 330 339 341 342 343 341 339 338 338 341 341 341 341 340 341 342 340 341 342 340 339 337 336 335 333 332 331 328 328 330 333 334 337 339 338 340 340 339 337 335 334 333 332 331 331 332 330 328 328 328 330 331 329 326 324 322 322 327 330 328 326 324 322 322 322 329 329 324 328 323 313 319 328
315 316 317 319 322 320 320 320 318 318 317 317 316 316 317 318 321 322 325 326 327 328 332 333 332 339 340 341 343 340 339 339 339 342 341 340 339 338 338 340 340 340 341 340 338 337 335 334 333 332 333 331 330 329 331 333 335 337 338 340 340 339 337 335 335 333 331 331 331 331 330 328 327 328 331 331 328 324 324 323 320 322 325 325 324 323 322 322 323 328 329 323 328 326 311 314 328
315 315 315 318 320 319 321 322 319 319 317 316 316 317 317 317 321 324 325 326 327 330 332 333 335 338 339 340 342 340 340 340 340 340 340 339 337 336 336 338 339 340 341 340 338 336 335 334 333 332 332 333 333 332 331 331 332 335 337 339 339 338 337 336 335 333 331 332 331 331 330 329 328 328 331 330 326 322 322 322 321 321 322 322 322 322 322 322 323 328 328 323 328 328 313 314 328
315 315 315 318 321 321 323 323 320 320 318 317 317 317 319 317 320 325 326 327 328 330 331 331 333 336 337 340 341 340 339 339 339 338 338 337 335 335 334 336 337 339 340 339 338 336 335 334 333 332 332 332 333 333 332 332 331 331 335 338 338 337 337 336 335 332 331 332 332 332 330 328 328 329 331 329 324 322 321 321 322 323 323 323 322 321 321 322 323 327 327 323 327 330 317 314 326
314 315 316 319 321 321 321 319 319 320 319 317 317 317 319 317 320 326 326 327 327 328 329 330 334 335 335 339 341 337 336 335 334 335 335 334 333 334 333 334 335 338 339 339 338 336 335 334 334 333 331 331 332 332 332 333 331 330 334 336 336 337 337 336 335 333 332 333 332 331 330 328 328 329 331 328 323 321 320 321 322 323 324 324 321 320 321 322 322 323 324 321 324 330 322 315 325
313 314 316 319 320 320 318 317 317 317 317 317 316 317 318 317 320 324 325 325 326 327 329 331 333 333 334 338 339 336 334 332 330 330 332 332 331 331 332 332 333 336 338 338 338 336 335 334 334 333 331 331 331 331 331 332 331 330 333 334 333 334 336 336 336 334 333 333 332 331 329 328 329 329 330 327 323 322 320 321 323 324 323 323 320 319 321 322 322 321 321 319 320 329 326 316 323
313 313 316 318 317 318 317 317 317 316 317 318 316 317 319 319 321 323 324 325 326 328 330 332 330 331 334 336 337 336 333 330 328 327 327 327 328 329 330 330 331 335 337 338 338 337 336 335 334 333 332 332 330 330 331 331 331 330 331 334 332 332 334 335 336 334 333 333 332 331 330 329 329 330 330 327 324 323 321 322 324 323 322 322 320 318 318 319 322 321 320 317 317 326 330 320 319
313 313 314 316 315 316 316 317 317 316 317 318 317 318 319 318 321 322 324 326 327 328 330 331 328 330 332 333 335 335 333 330 326 324 323 324 326 328 328 329 330 331 333 336 337 337 337 336 335 334 333 332 330 329 330 330 331 331 330 333 334 333 333 333 334 334 333 333 332 331 330 329 330 331 330 328 326 324 322 323 324 322 322 322 321 319 317 316 320 321 320 317 314 322 330 325 318
312 313 313 314 315 315 317 319 318 316 317 317 316 319 318 319 323 323 324 326 326 326 328 329 327 330 331 331 334 334 331 329 325 322 321 323 323 324 326 327 328 328 328 330 333 335 337 338 336 335 334 334 332 331 332 332 332 332 331 332 334 334 334 333 333 333 333 332 332 331 329 330 330 330 329 327 325 324 322 323 323 322 322 323 321 318 317 315 316 319 319 316 313 320 330 328 320
313 315 314 313 316 316 316 318 316 316 316 316 316 317 318 319 323 324 324 325 324 325 326 328 329 330 329 331 333 332 330 326 324 321 321 322 322 322 324 324 325 326 325 326 327 329 332 336 338 337 336 335 334 333 334 335 334 333 332 331 332 333 334 334 333 332 332 332 330 329 329 330 330 329 326 324 323 323 322 323 323 322 323 322 320 318 318 316 316 318 318 314 312 318 328 329 323
314 316 315 314 318 316 315 316 315 315 316 315 316 316 317 319 321 323 325 325 325 325 326 327 328 327 327 330 331 330 327 325 322 318 320 322 322 322 322 323 324 325 325 326 327 328 329 331 334 335 336 335 335 335 335 337 336 334 331 330 328 329 332 333 333 332 330 330 329 328 330 330 330 327 325 324 322 321 323 325 324 323 323 321 319 319 318 316 316 318 316 313 314 317 325 328 325
313 314 315 315 316 315 315 316 316 315 315 315 315 316 317 318 320 323 324 325 325 326 326 326 325 325 324 326 327 327 326 324 321 319 321 323 324 322 321 323 325 326 326 327 327 331 332 330 330 331 332 333 334 335 335 336 337 336 331 328 325 324 329 330 329 329 328 328 328 327 329 330 329 327 326 326 324 323 323 325 325 324 323 321 320 320 319 315 314 316 314 313 316 318 322 324 322
313 313 315 315 314 314 316 316 316 315 316 315 314 316 317 317 319 323 323 325 326 325 326 326 326 325 324 324 324 324 323 322 320 320 322 323 325 323 321 322 325 327 328 327 327 329 331 331 330 329 328 330 333 334 335 336 337 337 333 330 326 321 325 326 325 326 327 326 326 326 327 329 329 327 327 327 327 326 325 324 325 325 324 322 321 321 321 317 313 313 312 313 317 319 320 322 319
313 314 314 313 313 315 315 315 316 316 317 316 315 317 317 316 318 320 322 325 326 325 326 327 327 327 325 324 324 323 322 320 320 321 322 322 323 323 322 322 323 325 325 325 326 327 327 328 328 326 325 328 332 332 334 335 336 336 334 333 329 322 322 325 323 325 327 325 326 327 327 328 328 327 326 327 327 329 329 328 326 325 324 323 320 322 323 320 318 317 313 312 318 323 324 325 322
312 313 312 313 314 314 314 316 317 316 316 316 316 317 316 316 317 318 320 322 324 326 326 326 326 326 326 325 324 322 321 320 321 322 322 321 321 321 320 321 321 323 324 324 325 324 325 325 325 325 323 324 329 331 330 332 335 336 335 334 332 325 323 326 324 323 325 326 326 328 328 328 328 327 327 328 329 331 332 331 329 326 324 324 321 322 324 322 324 325 321 317 320 325 328 327 325
312 313 313 313 313 313 314 316 317 316 316 316 316 316 316 315 317 319 320 320 322 325 326 325 326 326 326 325 323 320 320 321 321 322 323 322 321 320 320 320 320 321 322 322 320 321 322 322 323 324 324 322 325 329 329 329 332 335 335 334 333 328 323 326 325 322 324 327 327 329 331 330 330 330 330 331 331 332 333 332 332 329 324 324 322 321 324 324 326 327 326 326 325 326 327 328 328
312 312 312 313 314 314 314 315 317 316 315 316 317 317 316 316 318 321 322 321 321 324 326 325 324 325 325 322 320 321 321 321 321 323 323 322 321 320 320 320 319 319 319 317 315 317 318 319 321 322 323 323 324 329 329 329 330 333 335 335 334 331 327 327 328 324 324 327 329 329 331 332 332 332 332 333 333 332 333 332 332 332 328 325 323 322 323 326 326 327 327 328 327 326 326 327 328
313 313 312 313 315 315 315 316 317 316 316 316 316 317 316 316 318 319 322 323 322 325 325 325 325 324 323 320 319 322 322 321 322 322 321 320 320 319 319 319 319 319 316 315 313 314 318 319 320 320 320 323 325 328 329 328 328 330 333 335 335 333 331 331 331 327 325 326 328 330 331 332 332 332 332 333 334 333 333 332 332 332 331 326 324 324 325 327 328 328 328 328 328 328 327 327 327
314 313 313 314 315 315 315 316 315 316 316 315 316 317 316 316 317 316 320 324 324 326 325 324 324 320 319 320 321 322 321 321 320 320 319 319 319 318 319 319 319 318 316 315 314 314 317 319 321 320 321 322 325 327 327 326 326 327 329 333 334 334 333 333 332 331 328 327 328 329 330 331 332 332 332 333 333 333 333 333 333 333 332 329 326 326 327 329 329 328 329 329 329 330 329 329 328
314 313 313 314 315 314 315 315 315 316 315 315 316 316 315 315 316 317 321 324 324 325 323 321 319 317 318 321 322 322 321 321 320 320 319 318 319 318 319 319 318 318 316 313 312 313 316 318 319 319 320 323 324 325 325 324 325 325 326 328 331 332 333 334 333 332 331 330 330 330 330 331 331 332 332 332 333 333 333 333 333 332 332 330 328 327 328 330 330 329 329 330 330 330 331 330 328
313 315 314 316 317 316 315 315 314 315 315 315 315 315 318 318 315 318 322 323 324 324 321 318 318 317 319 322 323 322 322 321 321 320 320 319 319 319 318 318 318 318 316 312 311 312 314 315 316 317 320 323 324 324 324 324 323 323 323 324 326 329 331 332 331 332 333 333 332 331 332 331 332 332 332 333 333 333 332 332 333 333 333 331 329 329 329 329 330 330 329 330 330 331 331 330 329
314 313 315 317 318 319 316 314 315 315 315 315 314 315 321 321 313 316 321 321 322 322 321 320 320 320 319 322 323 322 322 321 321 321 320 320 319 319 318 318 318 317 315 311 311 311 311 313 314 315 320 323 324 323 323 323 323 322 321 320 320 322 325 326 327 328 330 332 333 333 333 332 332 332 332 333 332 332 332 331 332 331 332 332 329 329 329 329 330 331 330 330 330 331 331 330 329
315 313 318 318 314 320 319 313 315 315 315 315 314 315 319 320 314 313 318 321 322 320 321 321 320 321 320 321 323 322 322 321 322 321 321 321 320 319 318 318 317 315 313 311 310 310 310 313 314 315 319 321 321 322 322 321 321 320 319 316 314 314 317 321 323 323 324 326 330 332 333 333 333 332 332 332 331 332 332 332 331 329 330 332 330 329 330 330 330 331 331 331 331 331 332 331 329
317 313 321 323 313 317 318 312 315 315 314 314 313 316 316 316 315 314 314 318 321 320 320 321 321 322 321 322 323 322 322 321 321 322 322 321 320 319 318 317 316 314 313 311 310 309 309 310 310 311 316 320 319 319 318 317 318 317 314 313 313 312 314 317 319 320 321 322 323 325 327 330 330 330 331 332 331 332 333 333 333 330 330 332 332 331 331 332 331 331 331 331 331 331 331 331 329
323 316 318 322 315 314 316 313 313 314 314 313 313 318 318 316 315 314 315 315 317 319 319 320 321 322 322 323 324 322 321 320 320 321 321 321 320 319 319 317 315 315 314 312 311 310 308 307 306 307 311 316 316 314 313 313 314 311 310 314 317 316 315 315 317 320 319 319 320 318 319 322 323 325 327 330 331 331 332 332 333 333 332 332 332 332 333 333 332 331 331 331 331 331 331 330 330
326 324 318 320 317 313 314 315 313 312 314 314 314 318 319 319 317 313 315 314 313 316 317 320 321 321 322 323 323 322 320 319 319 320 320 320 320 320 319 317 316 316 315 313 313 311 308 307 306 306 307 309 309 309 311 312 310 308 310 315 315 314 315 315 317 320 319 316 316 316 317 318 317 318 320 323 328 330 331 332 332 333 333 332 332 332 333 333 331 331 331 331 331 331 330 331 331
323 325 322 322 321 316 315 316 313 312 314 315 314 315 317 319 318 314 313 314 312 314 316 319 320 321 321 322 322 321 320 319 319 319 320 319 320 320 318 317 317 317 316 314 314 311 309 308 307 306 306 306 306 309 311 310 309 309 311 313 311 310 313 316 318 321 319 316 313 313 316 318 315 313 314 317 320 323 326 330 331 332 333 332 331 332 332 332 332 332 332 331 331 331 331 331 331
321 324 325 321 319 319 318 317 316 314 312 315 314 314 315 316 319 318 313 314 314 313 317 319 320 320 320 322 321 320 320 319 320 319 320 320 320 320 319 317 318 318 316 315 314 311 310 309 308 307 306 306 307 309 311 311 311 310 311 310 309 308 310 313 316 318 316 312 309 309 312 314 312 309 311 312 314 315 318 322 327 330 331 332 332 332 332 333 333 332 332 332 331 330 331 331 331
323 323 323 319 317 318 318 317 319 317 312 314 317 316 315 317 323 321 313 314 315 312 315 316 319 320 319 321 321 320 320 320 320 320 320 320 320 320 319 318 318 318 317 316 315 312 310 310 309 308 307 308 309 310 311 312 312 311 310 309 308 308 307 307 309 310 309 307 306 306 307 308 307 306 307 309 310 311 313 316 320 323 325 329 332 332 332 333 333 332 332 333 332 331 331 331 331
325 324 320 317 318 316 317 323 322 321 319 318 321 321 319 322 326 321 315 315 316 313 313 314 317 319 318 320 321 320 320 320 320 319 320 320 320 320 319 318 319 319 317 316 315 312 310 309 309 308 308 309 311 312 312 312 313 311 309 309 309 308 308 307 307 307 307 306 305 305 304 304 305 305 305 305 306 308 310 313 316 318 320 323 327 330 331 331 332 332 332 333 333 331 331 331 330
325 324 320 319 320 317 322 332 328 326 326 322 323 323 324 329 327 319 316 316 317 315 314 314 316 318 318 318 320 321 320 320 320 319 320 320 320 319 319 319 319 319 318 317 316 313 310 309 309 309 309 310 312 313 313 312 312 311 309 309 310 310 308 308 308 308 307 307 306 305 304 304 304 305 305 305 306 307 309 311 313 315 317 319 321 325 327 329 330 332 331 332 332 331 332 331 329
324 321 319 321 322 319 322 329 330 330 325 319 323 324 327 333 328 322 317 314 315 316 316 315 315 317 318 318 320 321 320 320 320 319 320 320 319 319 319 319 320 319 318 318 317 314 311 310 309 309 309 310 311 313 313 313 312 311 309 310 310 310 310 309 309 309 308 307 307 306 306 305 303 304 305 305 307 307 308 310 312 313 313 315 317 319 322 324 326 328 328 329 329 329 332 332 330
328 325 318 319 322 320 320 324 329 334 330 326 324 323 335 341 328 322 320 314 315 315 315 316 315 316 317 317 318 320 321 320 320 320 320 320 320 319 319 319 320 319 319 318 318 315 312 311 310 309 309 310 310 312 314 314 313 311 310 310 310 310 310 309 309 309 309 308 308 307 307 306 304 304 304 305 307 308 308 311 313 313 312 311 312 313 316 319 322 324 325 326 326 327 328 329 331
327 331 326 323 324 323 322 323 325 327 327 330 322 319 337 344 328 324 323 319 318 315 313 315 314 316 315 316 317 319 320 319 319 320 320 320 320 319 320 320 320 319 319 319 318 317 314 312 312 310 310 310 310 310 313 314 313 310 310 310 310 310 310 310 310 309 309 308 308 308 307 307 306 305 304 304 306 308 309 310 312 313 313 311 311 311 312 314 317 320 322 323 324 325 326 326 328
321 330 333 327 325 324 322 322 322 322 322 326 322 317 329 335 325 324 324 322 322 318 315 315 313 315 315 316 317 318 318 318 319 320 320 320 320 320 320 320 320 319 319 319 319 318 315 313 313 312 311 311 311 310 311 313 313 311 311 311 311 311 311 310 310 309 309 308 308 308 308 307 307 306 305 304 305 306 307 309 311 312 313 313 312 312 313 313 315 317 319 321 322 323 324 325 325
322 331 332 324 323 322 323 322 321 323 322 324 328 319 320 325 323 322 321 319 322 320 319 317 313 314 315 316 317 317 317 318 318 320 320 320 320 319 320 320 320 320 319 320 319 318 317 315 314 314 313 312 311 310 310 311 312 311 311 312 311 311 311 311 311 310 309 309 308 309 308 308 307 307 306 306 305 304 305 306 307 309 309 310 311 312 313 314 316 318 320 321 321 321 322 323 323
326 336 329 322 324 324 326 325 321 323 318 322 333 324 316 324 327 324 320 318 321 320 321 320 315 313 315 316 317 318 317 317 318 319 319 319 319 319 319 320 319 320 320 320 320 319 318 317 315 315 315 313 312 312 311 311 311 312 312 312 312 312 312 312 312 311 310 309 309 308 308 308 308 307 307 306 306 305 305 305 305 305 305 306 307 308 309 312 314 317 320 321 322 321 320 321 322
327 332 322 322 327 325 325 322 321 326 320 319 331 326 316 323 328 325 319 317 321 322 321 319 314 313 315 315 316 317 317 317 318 318 319 319 319 319 319 319 320 320 320 320 320 319 318 318 317 316 316 315 313 312 312 312 312 312 312 313 312 312 312 313 312 312 311 310 309 309 309 308 308 308 307 307 307 306 306 306 306 305 305 305 305 304 305 307 309 312 316 319 321 322 321 320 321
321 320 317 324 329 327 329 327 321 321 322 322 324 322 318 320 326 327 321 319 320 319 319 318 315 313 315 315 316 317 317 316 317 318 318 319 319 319 318 319 320 320 320 320 320 319 318 318 318 317 317 315 314 313 314 314 313 313 313 313 313 312 312 313 312 312 311 311 309 309 309 308 308 308 308 307 307 306 306 306 306 306 306 306 305 305 304 304 305 306 308 311 314 318 320 321 321
319 318 318 322 325 328 332 330 320 316 322 326 322 320 319 318 322 325 321 321 320 317 318 320 319 314 314 315 316 316 316 316 316 317 318 319 319 320 320 320 320 320 320 321 320 319 319 319 319 318 318 317 316 314 314 315 315 314 313 313 313 313 313 313 313 313 312 311 310 309 309 308 308 308 308 307 307 307 306 306 306 306 306 306 305 305 305 305 305 304 304 305 306 309 312 315 317
318 319 320 320 319 321 325 325 322 319 321 324 322 319 318 319 320 319 319 321 318 316 316 318 318 314 313 316 316 316 317 316 316 316 317 319 319 320 320 320 320 320 320 321 320 320 319 320 320 320 319 318 317 315 314 316 317 315 314 313 313 313 314 314 314 313 313 311 310 309 309 308 308 308 307 307 307 307 307 306 306 306 306 306 305 305 305 305 305 305 305 305 304 304 305 306 309
314 316 320 321 318 315 319 321 319 318 319 322 322 318 320 323 321 319 321 319 315 314 314 315 316 315 315 316 316 316 317 316 316 316 317 318 319 319 320 319 320 319 320 320 319 319 319 320 321 321 320 319 317 316 314 315 317 316 315 314 313 314 314 314 314 313 313 312 310 310 309 308 308 308 308 307 307 307 307 306 306 306 306 305 305 305 305 305 305 305 305 304 304 304 303 303 304
316 317 316 318 322 320 319 319 316 317 320 322 319 317 323 326 321 320 318 313 314 314 314 315 315 314 315 315 316 315 316 316 316 316 317 318 318 319 319 319 320 319 319 320 319 319 319 320 321 321 320 320 318 316 314 314 316 317 316 314 313 314 314 314 314 314 313 312 311 310 309 309 308 308 308 307 307 307 306 306 306 306 306 305 305 305 305 305 305 305 304 304 304 303 303 302 302
317 316 313 315 321 323 320 319 320 321 322 322 319 320 327 325 321 320 314 312 315 313 314 315 314 315 315 314 315 314 315 316 316 317 317 317 318 318 318 318 318 319 319 319 319 319 319 320 321 321 320 320 318 317 315 313 315 317 317 315 313 314 314 314 313 313 313 312 311 311 309 309 308 308 307 307 307 306 306 306 306 306 306 305 305 305 305 305 305 305 305 304 304 303 302 302 302
318 314 314 315 316 316 317 320 322 320 318 320 318 320 325 321 320 322 315 314 315 313 314 314 313 315 314 314 315 314 314 315 316 318 317 317 318 318 318 318 318 319 319 319 319 319 320 320 320 320 320 319 319 318 316 314 314 316 317 315 314 314 313 312 312 313 313 312 312 310 309 309 308 308 307 306 306 306 306 306 306 306 305 305 305 305 305 305 305 305 305 304 304 304 303 303 303
317 315 315 318 318 318 319 321 323 318 318 321 319 319 322 321 321 322 316 315 315 314 314 313 312 313 312 313 313 312 314 314 314 316 317 318 318 317 318 318 318 319 319 319 320 320 320 320 320 320 320 319 319 318 317 314 314 315 315 314 314 313 312 311 311 311 312 312 311 310 310 309 309 308 307 306 306 306 306 306 306 305 305 305 305 305 305 305 305 304 304 304 304 304 304 303 303
311 313 315 318 320 321 318 318 320 318 317 322 323 319 319 320 321 319 316 316 315 314 315 314 313 312 310 311 310 309 312 313 315 316 316 318 319 319 318 318 318 319 319 320 320 320 320 320 320 320 319 318 318 319 318 315 315 315 314 313 313 312 311 310 311 310 311 311 311 310 310 309 309 308 307 306 306 306 306 306 305 305 305 305 305 305 305 305 304 304 304 304 304 304 304 304 303
311 311 313 317 320 320 317 317 318 318 317 319 322 319 319 324 322 317 316 317 315 315 316 316 313 311 310 309 309 308 309 309 311 313 315 316 318 319 320 320 319 319 319 320 320 320 321 320 321 320 319 319 319 319 318 315 315 315 313 313 313 311 310 310 310 310 310 310 310 310 310 310 309 308 307 306 306 306 306 306 305 304 305 305 305 305 305 305 304 305 304 304 304 304 304 304 303
311 313 314 317 319 317 317 317 317 319 320 320 320 320 323 327 323 318 317 316 314 315 316 315 311 309 309 309 308 308 307 307 307 308 311 313 315 318 319 320 321 320 321 320 320 320 321 321 321 320 319 319 318 319 318 316 315 314 313 313 313 311 310 310 310 310 309 309 309 309 309 309 309 308 307 306 306 306 306 305 304 304 305 305 305 305 305 305 305 305 305 305 305 305 305 304 304
311 312 313 313 316 316 315 316 318 322 324 323 321 321 324 326 322 320 318 315 313 312 312 311 310 308 309 309 309 308 308 307 305 305 307 309 311 314 316 319 320 320 321 321 321 321 321 321 320 320 319 319 318 319 318 317 315 313 313 313 312 310 310 310 310 310 310 309 309 309 309 309 309 308 307 306 306 306 305 304 304 305 305 305 305 305 305 305 305 305 305 305 305 305 305 304 304
Wind_Speed
5 4 3 7 9 5 2 3 1 2 2 1 3 1 4 5 5 3 3 3 3 5 12 20 18 20 18 17 18 18 14 4 5 3 5 10 13 14 11 11 13 13 15 16 16 15 12 10 10 11 14 16 18 19 18 18 18 17 16 16 17 17 16 16 15 15 14 14 14 15 14 14 14 14 15 15 16 17 19 19 18 17 16 14 13 13 13 12 9 10 12 11 12 14 16 17 17
4 4 5 7 7 3 1 2 1 2 3 3 3 3 5 2 4 4 5 4 5 11 26 34 31 31 30 26 23 20 17 9 10 15 16 17 15 13 13 14 14 14 16 17 17 15 13 11 10 11 13 16 17 18 18 18 17 17 16 16 17 17 16 15 14 14 13 13 13 14 14 13 13 13 14 14 14 15 16 16 16 16 15 14 13 12 12 11 10 10 12 12 14 16 19 21 21
4 5 6 6 4 1 1 2 1 1 2 3 4 4 5 3 4 2 8 12 16 20 26 29 26 22 22 18 15 13 8 11 22 25 22 18 16 17 16 16 15 14 16 18 17 15 13 11 10 11 13 15 17 18 18 17 17 16 16 15 16 17 16 15 14 13 13 13 13 13 13 12 12 12 13 13 13 13 13 14 14 14 14 13 13 12 11 11 10 11 12 13 14 17 21 24 24
4 6 6 4 3 2 2 2 2 4 2 4 4 5 5 2 7 9 13 17 19 20 20 20 16 14 22 18 14 17 11 12 22 24 23 19 16 19 18 17 16 15 17 18 17 16 14 11 11 12 13 15 16 17 17 17 17 17 16 15 16 17 17 15 14 12 12 11 12 12 12 12 12 12 12 13 13 12 12 12 13 12 12 12 12 12 11 10 10 11 12 13 13 17 23 27 27
5 5 4 2 2 1 1 1 1 4 4 4 2 6 6 3 8 8 13 17 17 19 19 17 12 14 24 16 10 12 14 17 17 19 22 19 15 17 18 17 17 17 19 19 18 16 14 12 12 12 13 15 16 16 17 17 17 16 16 16 16 17 17 15 13 12 11 10 11 12 12 12 12 11 11 11 12 13 12 12 13 12 11 11 11 11 10 9 9 11 13 13 13 17 24 28 28
6 4 2 1 1 1 1 1 3 3 5 4 2 6 7 5 4 10 15 16 16 21 22 20 17 17 18 15 15 15 18 18 16 15 18 18 15 15 16 18 17 18 19 20 19 17 15 13 12 11 13 14 15 16 16 16 16 16 17 17 17 18 17 16 14 12 10 10 9 10 11 11 11 11 10 10 11 12 11 11 11 11 11 10 9 10 10 9 8 10 13 13 13 18 25 28 28
6 3 1 1 2 0 2 2 4 3 4 5 4 6 9 10 4 15 14 14 16 20 24 24 26 21 11 10 16 15 16 14 17 16 15 17 15 14 15 18 18 18 19 20 19 17 16 13 12 11 12 14 15 16 16 16 15 17 17 17 18 19 18 16 14 12 10 9 9 8 10 9 10 10 10 10 10 10 10 10 10 10 10 9 8 9 10 10 8 8 12 13 12 17 25 28 26
4 2 2 1 1 1 1 3 4 3 4 4 6 9 12 13 6 11 11 12 9 13 21 24 30 21 6 11 12 11 14 11 14 15 15 16 14 14 14 17 18 19 19 21 20 17 16 14 12 11 12 13 14 15 14 13 13 16 17 15 17 18 18 17 15 12 10 9 9 8 8 8 8 9 10 10 10 9 9 9 9 9 8 7 7 8 9 10 8 8 10 11 11 16 24 26 25
1 1 1 1 0 1 1 3 4 4 5 5 8 12 14 20 17 9 10 10 10 14 17 20 26 17 9 17 15 14 16 12 15 16 16 15 14 14 13 15 16 18 20 21 20 18 17 15 13 11 10 11 12 13 12 12 11 13 15 15 15 17 18 17 15 13 11 10 9 8 8 7 7 8 9 10 10 8 8 8 9 9 7 6 6 7 8 9 8 8 8 9 10 15 22 24 25
3 1 1 1 1 2 3 4 4 3 6 7 10 15 16 22 19 12 15 11 16 16 12 19 23 20 18 17 14 16 17 14 17 17 16 15 14 14 13 14 14 18 21 22 20 18 18 16 13 11 9 9 10 11 12 12 11 11 13 14 14 15 17 17 15 13 11 10 9 8 7 7 6 7 8 9 9 7 7 7 8 9 7 5 5 5 6 8 8 8 8 9 10 14 20 24 25
3 2 2 1 1 2 3 4 4 5 7 6 10 20 24 21 9 14 21 16 19 20 19 23 21 24 22 13 14 18 18 16 17 18 17 16 14 13 13 15 16 18 21 22 21 18 17 16 14 11 9 9 10 10 11 11 11 10 11 13 15 14 16 16 14 12 11 9 8 8 7 6 6 7 8 9 8 7 6 6 7 8 7 5 4 4 5 7 9 8 8 9 10 13 19 24 25
1 2 1 2 1 3 3 3 5 6 7 6 9 19 28 19 10 16 20 16 19 21 20 21 20 26 17 7 17 20 19 17 17 18 17 16 15 14 14 15 17 18 21 22 20 18 17 15 14 12 10 9 9 9 9 9 10 11 12 13 14 14 15 15 14 12 10 9 8 8 7 6 7 7 8 9 8 6 6 6 6 7 6 5 4 4 4 6 8 8 8 9 11 13 19 23 24
4 2 4 2 3 3 3 3 5 6 7 6 8 17 24 13 14 19 20 19 20 15 14 27 30 26 15 11 22 23 20 18 18 18 17 18 16 16 15 15 16 17 19 20 19 18 16 15 13 12 10 10 9 8 8 7 8 10 13 13 13 13 14 15 14 12 9 9 9 8 6 5 6 7 9 8 7 6 6 5 5 6 6 6 4 3 5 6 8 8 8 9 11 13 18 22 23
6 4 4 1 1 1 3 3 4 4 7 7 11 18 11 4 18 25 26 17 10 14 19 34 35 23 18 16 18 24 23 19 19 19 18 18 16 17 15 14 15 15 16 17 18 17 16 14 13 11 10 10 10 8 8 7 6 8 11 12 11 12 13 14 14 12 10 10 9 8 6 5 6 7 9 8 6 5 5 5 5 5 5 5 3 3 5 6 7 8 7 9 11 13 17 21 23
8 7 3 1 2 3 3 3 5 5 6 8 10 1 11 15 24 25 27 17 7 22 27 29 28 17 20 19 17 28 27 23 22 20 20 19 17 17 16 15 13 13 13 14 15 15 15 13 12 11 10 10 10 9 8 7 6 6 10 11 10 11 13 14 14 11 10 10 9 8 6 5 6 7 8 8 6 5 5 5 5 4 4 4 3 1 3 5 7 7 7 8 12 15 16 20 22
10 7 2 0 2 2 3 3 4 4 6 7 1 20 20 13 24 19 20 29 20 23 22 20 15 11 27 28 28 35 30 27 24 22 22 20 19 18 17 16 14 14 12 11 11 13 14 12 12 11 10 10 10 9 8 8 7 7 9 11 11 11 11 12 13 12 10 10 9 8 6 6 7 8 8 8 6 5 5 5 4 5 4 4 2 1 1 4 6 7 7 8 11 15 16 18 22
8 5 1 1 3 3 4 4 2 4 7 8 4 19 16 9 23 22 21 34 27 18 14 14 9 18 33 28 34 38 31 29 25 23 23 22 21 19 18 16 16 15 13 11 9 9 11 12 12 11 10 10 10 9 7 7 9 9 9 11 11 10 10 10 11 11 10 10 9 7 6 7 8 9 9 7 6 5 5 5 5 5 5 4 3 1 1 2 5 7 7 7 9 15 17 16 20
4 1 2 3 4 5 4 4 4 5 9 8 4 8 15 12 18 24 21 23 25 18 16 19 16 23 30 28 37 37 31 30 24 23 22 22 22 20 20 17 16 15 14 13 11 9 9 10 11 11 11 10 11 9 8 7 9 11 11 12 12 11 11 11 11 11 11 9 8 7 7 8 9 9 8 7 7 6 5 5 5 6 5 4 3 2 2 2 4 6 7 7 9 14 17 15 17
5 2 2 4 5 4 3 4 8 7 10 10 3 2 13 16 15 22 16 13 23 18 16 27 28 26 29 33 36 33 32 29 24 22 21 22 22 21 21 18 17 15 14 13 12 10 8 9 8 9 9 9 11 11 10 9 11 13 13 13 13 12 12 12 12 11 10 9 8 8 8 9 10 9 7 6 6 6 6 5 5 5 5 4 3 2 2 2 3 5 7 9 10 13 16 15 15
5 5 2 5 3 2 3 6 12 10 10 9 2 5 12 14 15 20 15 13 19 15 16 24 28 31 35 36 34 32 31 27 24 21 20 21 20 20 20 20 19 16 15 12 11 10 8 8 8 8 8 8 9 10 11 11 13 15 15 14 13 13 13 13 13 11 10 10 9 9 9 9 10 8 7 6 6 6 7 7 6 6 6 5 3 2 2 1 3 6 9 11 11 13 15 14 13
3 5 5 5 3 3 8 12 16 11 13 12 7 7 9 10 16 23 19 12 8 15 29 31 34 39 40 39 36 34 31 28 26 22 22 23 21 20 18 19 19 17 15 12 12 11 8 8 7 7 7 8 7 7 9 9 13 15 16 16 14 14 14 14 14 13 12 11 10 9 10 10 9 8 7 6 6 7 7 7 8 7 7 6 4 3 3 2 3 6 10 12 14 16 16 14 13
3 6 8 10 8 5 13 17 16 9 11 15 12 7 3 7 13 21 19 9 8 20 35 40 42 44 42 42 39 34 32 29 27 25 25 25 25 23 21 21 19 18 16 14 13 11 10 8 7 7 7 8 7 7 7 7 10 13 16 16 15 14 14 13 13 14 13 11 11 10 10 10 9 8 7 7 6 7 7 8 9 9 8 6 5 5 3 5 8 9 10 14 16 18 18 15 13
5 8 11 13 14 8 9 10 10 7 7 9 8 6 2 9 9 11 14 11 18 29 35 39 41 42 44 43 39 34 32 29 28 28 25 26 26 24 24 23 21 20 19 16 14 11 10 9 8 8 8 8 8 8 7 7 8 11 15 15 14 13 13 13 13 13 13 12 12 11 10 10 9 9 8 8 8 8 8 10 11 11 9 8 7 6 5 8 12 13 13 15 17 16 16 15 13
7 8 11 15 18 15 14 9 7 5 8 6 5 7 5 8 5 5 8 10 22 30 33 37 38 41 43 40 35 32 31 30 30 27 25 24 24 23 23 22 21 21 21 19 15 13 11 9 9 9 8 8 8 9 8 8 8 10 14 15 15 13 13 13 12 13 13 12 12 12 11 10 9 8 8 9 9 9 9 11 13 12 11 10 9 7 7 10 11 12 14 15 15 14 14 15 13
8 9 13 14 16 17 18 11 6 3 6 6 5 5 6 8 9 5 7 15 25 31 32 33 36 39 39 36 33 31 31 31 30 28 26 24 23 22 20 20 20 19 19 18 16 15 13 11 11 11 10 8 8 9 9 9 9 10 13 16 16 14 14 14 13 13 13 12 12 12 11 10 10 9 9 9 10 10 10 12 14 14 13 12 12 10 10 11 10 10 11 11 12 12 12 13 12
8 14 16 11 8 11 13 10 7 3 2 5 5 3 5 9 13 4 7 23 30 35 37 35 38 38 35 34 32 30 30 30 31 31 28 26 25 22 21 20 19 17 15 14 15 16 15 13 11 11 11 9 9 9 8 9 9 10 12 14 16 16 15 16 15 15 14 13 13 13 12 11 10 10 9 9 9 10 11 13 15 16 16 14 13 12 12 13 12 11 9 8 8 9 9 10 10
12 18 20 10 7 12 13 9 8 7 3 3 3 2 6 4 9 1 7 27 35 37 39 38 38 37 35 34 32 30 30 32 32 32 30 28 25 23 22 19 17 15 13 12 14 16 16 14 12 11 11 10 9 9 8 9 9 9 10 12 15 16 17 18 18 17 16 15 14 14 13 13 12 11 11 10 8 9 11 13 15 17 17 15 14 13 13 14 15 14 12 10 9 8 8 8 9
19 14 12 6 3 6 9 9 9 7 2 2 4 1 5 5 5 10 16 27 37 39 37 37 37 35 36 35 33 32 33 33 32 31 30 28 25 22 21 19 17 15 11 11 13 16 17 15 14 12 11 11 10 10 9 9 9 8 8 9 11 13 16 18 19 19 18 16 15 15 15 13 12 12 11 10 8 9 10 12 14 16 18 18 16 15 15 15 16 16 14 13 11 10 9 9 11
18 7 3 2 5 2 4 5 8 6 2 4 5 3 5 5 2 19 28 30 37 40 36 35 35 35 37 36 35 33 33 32 31 30 28 26 23 20 19 18 16 14 11 11 12 14 15 14 13 13 13 11 10 10 9 8 8 8 7 8 8 10 11 13 15 16 17 17 16 15 14 13 11 10 10 10 9 9 10 10 10 12 16 18 17 16 16 16 17 18 16 14 13 12 11 10 13
12 4 1 2 7 4 5 3 6 6 4 9 7 1 5 7 7 14 27 30 30 34 35 32 33 35 36 37 35 34 33 33 32 30 27 24 21 19 18 17 16 13 11 10 11 11 12 10 9 12 14 13 11 9 8 7 7 7 7 7 8 8 9 9 9 11 13 15 16 15 13 12 11 10 10 9 9 11 11 10 10 10 12 16 18 17 16 16 16 17 17 16 14 12 11 9 12
4 3 3 2 3 5 6 2 6 3 5 13 11 2 7 7 11 10 18 29 28 28 31 31 33 35 36 37 36 36 35 34 33 30 27 24 21 19 18 18 15 12 10 9 9 8 9 9 8 12 15 14 13 10 8 7 5 5 5 6 8 9 9 9 7 7 8 10 13 16 15 14 13 11 11 10 10 11 11 11 11 11 11 13 18 18 17 16 13 14 16 16 15 12 10 8 11
3 1 4 3 1 5 7 2 8 6 4 12 12 2 7 6 9 11 9 25 31 28 29 31 34 35 35 36 36 37 36 34 32 31 28 25 21 19 18 18 15 12 12 10 8 7 8 8 7 12 16 15 13 11 9 9 7 5 4 5 6 7 8 8 8 7 7 6 7 11 14 16 15 13 13 12 12 11 11 11 12 13 12 12 16 18 18 16 12 13 15 15 15 12 11 10 12
4 1 2 3 2 4 6 5 9 11 3 6 9 3 3 5 7 9 9 19 31 28 26 29 33 34 34 35 36 36 37 35 34 32 30 27 23 19 17 16 14 13 13 12 9 6 6 6 7 10 14 14 12 11 10 9 7 6 6 7 7 6 6 6 7 6 6 6 5 5 8 11 13 13 13 14 15 13 12 11 12 14 14 13 14 16 18 16 15 15 16 16 16 15 14 13 12
4 2 1 3 3 2 3 6 8 9 7 6 9 5 5 5 6 7 11 20 30 28 28 29 30 33 33 34 35 37 38 37 36 35 32 29 25 21 17 15 15 15 14 13 10 6 6 7 7 9 10 11 10 9 9 8 8 9 10 10 7 6 7 6 6 5 4 4 3 4 5 5 8 10 11 13 15 16 16 13 12 13 14 14 13 14 16 17 17 17 17 18 18 18 17 15 14
2 1 1 3 2 1 3 6 5 8 10 8 9 7 9 7 6 4 6 16 24 23 28 30 29 33 33 33 36 38 39 40 38 36 34 31 27 23 20 18 18 17 16 15 12 8 8 7 7 9 10 10 11 12 11 10 9 10 11 10 7 7 7 7 5 4 4 5 5 6 7 5 5 7 8 9 11 12 15 16 15 13 12 13 14 14 16 18 18 18 19 20 21 21 19 18 17
4 3 4 2 3 3 4 6 5 5 9 7 9 9 9 7 7 5 4 9 16 19 25 30 31 34 34 33 37 38 40 41 39 36 34 32 29 25 24 22 21 20 18 17 15 12 11 10 10 10 11 12 14 14 13 11 9 8 8 8 8 7 7 6 6 6 6 5 5 7 8 8 7 7 7 7 8 8 9 13 16 16 14 13 14 15 17 18 18 18 19 21 23 23 21 21 19
4 1 2 2 1 3 5 4 7 2 5 0 2 4 6 6 6 6 6 3 7 13 19 25 30 32 33 34 36 39 41 41 39 37 35 33 30 27 27 26 24 22 21 19 17 15 13 12 12 12 13 13 14 14 13 12 9 6 6 6 7 7 6 5 5 3 1 1 2 4 6 6 7 8 8 8 8 7 7 6 9 13 14 15 15 16 18 19 18 18 19 21 23 22 22 22 22
4 3 1 3 0 3 6 3 7 4 5 3 4 3 6 6 5 7 6 3 5 10 12 21 29 31 32 35 37 39 41 39 38 39 37 34 32 30 30 30 29 27 25 22 19 17 16 14 13 13 14 14 14 14 14 13 9 5 4 5 5 6 6 6 6 7 7 6 4 2 2 2 4 5 7 9 9 9 8 7 6 8 10 15 17 16 16 16 17 17 19 20 20 19 21 24 24
4 2 2 4 2 2 6 5 7 6 5 2 3 4 5 7 6 6 5 5 8 13 14 18 26 31 30 33 36 38 37 35 37 40 39 37 35 34 34 33 32 30 27 23 20 19 18 17 15 14 15 15 15 16 16 13 10 7 4 4 3 3 4 4 5 8 10 10 8 7 6 5 3 4 5 7 8 9 9 7 7 8 8 11 15 16 14 13 14 17 18 20 19 19 21 24 25
3 3 3 3 3 1 2 5 6 5 2 2 2 4 5 6 6 4 7 10 9 12 16 17 19 29 34 35 38 39 36 34 37 40 41 39 38 37 37 36 35 32 28 25 23 21 20 19 18 16 16 15 15 16 17 14 12 9 5 4 4 3 4 3 4 7 9 10 10 10 9 8 6 3 5 6 7 7 8 7 7 8 9 10 12 14 14 13 13 13 14 16 17 18 22 23 25
2 2 4 3 5 2 4 4 5 6 5 1 4 6 5 4 5 6 5 4 5 10 14 18 21 25 32 33 35 39 38 36 40 42 42 42 41 40 40 39 37 34 31 27 25 22 20 20 19 18 17 16 15 15 16 15 14 11 9 8 7 5 6 4 3 6 7 8 10 10 11 10 8 5 2 4 6 6 6 7 6 6 8 10 11 12 13 12 12 11 11 11 11 13 17 20 23
4 3 6 6 6 5 3 1 4 5 5 4 2 2 5 5 3 6 6 4 5 7 9 18 28 24 23 26 29 36 38 39 41 43 45 44 42 42 42 41 39 36 33 29 25 21 19 20 20 19 18 17 15 14 16 17 15 13 10 9 8 6 5 3 2 3 4 6 8 9 10 10 9 8 6 3 2 4 5 6 6 7 8 9 10 10 11 12 12 12 11 11 10 10 12 16 20
2 4 6 6 5 4 2 1 3 2 2 4 2 3 4 6 4 7 6 5 7 7 5 16 27 23 19 26 32 36 37 38 40 43 46 45 43 43 43 43 41 38 35 31 26 21 20 20 20 20 20 18 16 15 17 18 18 15 12 9 7 6 5 3 1 1 1 3 5 7 8 9 9 9 8 8 5 2 1 3 5 7 9 10 11 11 11 11 13 13 13 12 12 11 12 13 15
2 6 6 4 3 3 2 4 5 3 3 4 4 3 3 4 5 7 5 5 8 9 7 11 20 22 22 28 35 37 35 35 38 43 46 45 44 44 44 44 42 39 36 32 28 23 21 21 20 20 20 19 17 17 17 18 18 16 13 10 9 8 5 2 2 2 2 1 2 4 5 7 8 8 8 8 7 7 5 4 1 2 4 6 7 7 8 10 11 13 13 13 12 12 13 13 14
6 7 5 4 4 5 4 5 3 1 2 4 6 1 1 5 5 5 3 4 7 10 10 9 14 23 26 29 33 34 33 32 34 39 43 45 44 44 44 44 43 40 37 34 30 25 23 21 20 20 21 20 18 18 18 18 18 16 13 12 11 8 6 5 5 4 4 3 2 2 3 4 6 7 7 7 6 6 6 6 5 4 3 3 3 3 4 6 9 12 14 14 14 13 14 15 15
6 4 2 1 3 3 3 5 3 3 4 3 7 0 0 5 6 4 2 3 6 8 9 9 15 24 28 30 32 31 30 30 32 36 40 43 44 42 43 43 42 40 38 35 31 27 24 23 21 21 21 20 18 18 19 19 19 17 14 13 12 10 8 8 8 7 6 6 6 3 2 2 4 5 6 6 5 5 5 5 5 5 5 4 3 4 4 4 7 9 12 15 16 16 15 16 17
2 3 1 4 5 4 3 3 4 4 2 6 7 3 3 3 6 4 3 4 5 6 8 9 12 21 28 31 32 32 31 29 30 34 38 40 41 42 42 42 41 40 38 35 31 29 27 25 23 23 22 20 18 18 19 19 20 19 16 15 13 11 10 10 10 9 8 8 7 5 4 2 2 2 3 4 4 4 5 5 6 6 6 6 5 4 5 6 7 8 10 12 15 17 18 19 20
4 3 2 3 4 4 5 4 4 2 4 7 5 3 5 2 5 5 5 6 6 5 8 10 7 15 25 29 32 35 35 32 29 31 36 39 42 44 44 42 41 39 38 36 34 32 29 27 26 25 23 21 18 18 19 19 20 20 18 16 14 12 12 12 11 10 9 9 8 7 6 4 3 2 2 3 3 3 4 5 6 8 9 9 9 7 6 6 7 9 10 12 14 17 19 21 22
6 4 4 4 2 4 4 4 1 1 6 6 3 2 4 4 8 8 8 8 8 6 9 12 9 15 23 29 34 36 37 36 31 29 33 38 42 44 45 44 42 40 39 38 36 34 32 30 29 27 25 21 19 18 19 20 21 20 19 17 15 14 14 14 13 11 10 10 9 8 8 6 5 4 4 4 4 5 5 6 8 9 11 12 12 11 10 9 9 10 11 13 15 17 19 21 22
4 4 3 4 2 2 2 4 2 2 5 6 4 2 2 4 5 7 7 8 10 12 12 13 10 14 22 29 32 33 35 36 35 32 32 36 39 41 42 43 43 41 40 39 38 37 34 32 31 29 26 22 20 20 20 21 21 21 20 18 15 15 15 14 13 12 11 11 10 10 9 8 7 6 5 5 6 6 8 9 10 11 12 12 12 12 12 12 12 12 13 14 16 17 18 20 23
4 5 5 4 4 3 3 3 3 4 4 4 3 2 2 2 4 6 4 7 11 13 15 17 15 9 9 17 21 25 29 32 33 33 33 35 36 36 38 40 40 40 40 40 39 38 36 34 33 31 28 25 22 21 22 23 22 22 21 18 16 15 14 14 13 13 13 13 12 12 11 10 9 8 7 7 7 7 9 10 11 12 13 13 13 12 12 12 12 12 12 13 15 16 17 18 21
3 3 5 2 4 5 3 3 5 4 1 3 2 2 4 4 5 7 7 10 16 22 24 24 22 20 17 12 9 7 16 22 27 30 33 35 35 35 37 37 38 39 41 42 41 39 38 36 33 31 29 26 24 23 23 23 23 23 22 19 16 15 15 14 15 15 15 15 14 14 13 11 11 10 9 8 8 8 9 11 12 13 14 14 13 14 14 14 15 15 14 13 13 14 16 17 19
2 2 3 3 3 6 3 2 1 3 1 4 1 3 5 3 5 6 8 10 12 16 18 20 24 27 27 27 28 20 9 4 16 25 31 34 35 36 37 37 37 39 41 42 42 41 38 36 34 32 29 28 27 25 25 24 24 23 23 20 17 16 15 14 15 15 16 16 16 15 14 14 13 12 10 10 10 10 11 12 13 14 14 14 14 14 15 16 17 18 18 18 16 14 15 16 18
2 1 5 3 2 4 2 1 3 3 2 5 1 3 5 2 3 5 9 10 9 10 11 14 22 26 25 26 31 32 27 18 4 11 22 31 35 35 36 38 38 39 41 41 41 41 39 36 34 32 30 29 29 28 26 25 25 24 23 20 18 16 15 14 14 15 16 16 17 17 16 15 14 12 12 12 12 12 12 14 14 14 14 14 14 14 16 16 17 18 19 19 19 18 17 17 17
5 1 3 0 1 1 0 1 1 1 2 4 4 4 3 2 3 2 7 7 7 9 11 11 14 19 22 25 30 33 32 28 21 11 4 19 30 35 36 38 40 41 41 41 41 41 40 38 36 32 29 29 29 29 27 26 26 25 23 20 18 17 15 14 13 14 15 15 16 16 16 15 14 14 14 13 13 13 14 15 15 14 14 13 14 15 16 17 18 18 19 19 19 20 20 20 19
5 3 3 1 2 3 3 2 3 3 3 2 3 4 2 4 5 3 5 5 6 7 8 8 10 16 22 25 29 32 31 29 27 25 18 5 14 28 33 36 38 41 42 42 42 42 41 39 38 34 31 30 30 30 29 28 27 25 23 21 19 18 16 15 14 14 14 14 14 15 15 15 15 15 15 14 14 14 15 15 14 14 13 13 15 16 17 18 18 19 19 19 20 21 22 23 22
4 5 5 4 2 0 0 1 2 4 3 3 1 3 4 5 4 6 7 6 6 7 6 6 9 17 22 24 27 30 30 30 30 28 25 20 10 9 21 29 32 34 39 41 42 42 42 40 39 36 34 32 32 31 30 29 27 26 24 22 21 20 18 16 15 14 14 13 14 14 14 15 15 16 15 15 15 15 15 15 14 13 13 14 16 17 18 19 20 20 20 20 21 22 24 25 25
2 2 3 3 3 1 1 3 2 2 3 4 4 3 6 5 3 5 7 7 6 7 8 7 9 15 18 22 25 27 30 32 30 27 24 23 21 15 9 18 27 30 34 38 41 42 42 41 39 37 36 35 33 32 32 30 28 26 25 24 23 22 20 18 16 16 15 14 14 14 14 15 16 16 16 15 15 15 15 14 13 12 13 14 17 18 19 20 21 21 21 21 22 24 25 26 26
Wind_Direction
233 214 187 164 166 151 139 147 86 325 74 270 262 240 257 214 229 276 189 202 41 30 86 105 114 111 105 107 107 84 58 85 168 128 149 155 148 166 171 156 163 165 159 158 153 145 145 145 144 144 150 156 161 163 164 166 164 159 155 157 159 154 143 138 134 126 119 108 102 101 103 106 109 116 119 121 123 123 120 117 115 113 109 105 99 91 91 100 107 104 96 95 109 122 129 131 127
205 178 163 162 172 150 109 107 86 320 43 302 276 198 252 245 241 266 187 155 119 118 96 98 98 98 104 105 97 76 49 53 123 121 127 143 147 165 170 162 167 167 164 159 152 148 148 148 144 145 153 157 162 165 165 167 167 163 159 159 161 159 149 142 138 132 127 117 107 102 104 106 110 117 122 125 126 125 124 123 121 119 115 111 104 93 89 100 111 109 101 93 105 124 128 126 123
176 167 158 153 157 116 84 77 102 133 97 256 279 233 255 271 210 88 110 119 129 125 101 96 91 92 98 83 70 84 75 81 112 121 129 148 154 159 163 162 165 169 166 159 154 151 152 150 146 146 154 159 162 165 166 167 168 167 164 162 164 164 157 149 143 138 134 127 116 106 103 106 111 116 122 130 130 127 128 131 130 126 119 112 108 98 86 94 111 113 106 92 100 124 126 123 121
166 165 146 131 126 77 59 90 153 137 170 226 270 268 291 282 143 105 111 124 130 119 101 93 76 77 88 86 86 93 106 110 119 126 137 158 160 154 157 161 164 170 166 160 156 154 155 153 152 150 152 158 161 164 165 168 169 170 169 165 166 169 164 157 151 145 140 133 124 113 105 104 111 114 117 127 133 131 130 135 137 132 121 111 108 101 89 90 108 117 111 93 97 122 125 122 120
158 157 131 107 96 49 63 118 180 142 200 203 217 282 316 38 108 115 125 124 122 110 100 93 79 82 82 87 96 98 126 130 132 133 141 160 163 152 153 160 164 168 166 160 159 158 159 158 156 151 148 153 157 160 163 167 170 170 172 169 169 174 170 165 159 153 145 140 132 121 112 107 110 116 115 122 132 134 131 134 138 138 126 114 109 103 96 88 103 119 115 98 98 122 126 122 121
149 158 170 192 27 340 86 204 240 215 227 187 195 285 299 324 80 117 112 100 98 102 103 97 101 98 76 74 90 116 137 132 140 141 144 156 158 155 154 159 161 165 165 162 163 162 162 163 157 150 148 149 152 155 157 162 168 170 173 173 172 175 174 170 167 161 150 144 141 127 118 113 111 119 118 118 126 128 126 128 136 140 129 116 111 107 104 95 99 120 119 106 103 123 127 123 123
141 147 184 275 309 89 115 207 236 249 238 188 200 257 275 288 145 123 106 92 88 98 106 107 108 96 74 97 96 115 132 132 142 143 147 149 152 158 159 160 159 162 165 164 166 165 163 163 158 152 151 152 153 152 152 157 164 170 175 175 172 175 175 173 173 168 156 150 149 132 122 120 117 122 123 122 125 123 122 126 131 137 128 117 117 114 111 106 105 122 122 114 111 127 131 126 126
130 120 72 61 344 38 127 235 244 223 234 213 219 240 256 269 208 138 121 121 113 108 114 117 110 89 71 116 100 114 124 130 138 141 143 141 148 154 159 160 158 160 165 167 167 167 163 164 162 158 156 156 155 150 149 153 158 167 174 176 173 174 174 174 177 172 163 158 152 139 128 127 123 125 126 128 131 127 126 130 133 137 128 117 123 120 117 115 116 129 124 119 120 133 138 133 130
48 54 71 98 90 323 270 280 268 237 258 249 251 250 250 266 253 182 123 117 124 122 125 124 111 101 104 102 102 122 120 129 136 137 140 140 147 147 155 159 158 161 165 168 167 166 163 165 166 161 158 155 152 145 142 146 151 162 171 175 172 173 174 175 176 174 169 161 154 144 134 129 127 129 130 133 136 131 129 130 132 138 136 126 130 125 121 121 125 140 129 125 131 136 144 142 136
348 328 228 118 102 304 296 291 265 261 265 256 270 264 257 262 248 163 124 124 128 119 121 116 107 115 117 102 111 126 123 134 137 137 143 144 146 143 149 154 160 162 163 168 168 167 165 168 167 163 158 146 141 136 135 141 147 156 166 172 172 174 176 176 174 174 170 165 161 150 143 138 133 134 135 137 136 132 128 129 127 132 141 143 143 131 127 129 134 148 135 131 141 137 145 148 141
348 261 245 69 67 263 265 264 261 273 269 284 281 272 269 255 220 127 126 135 133 127 125 111 103 115 111 107 123 126 130 139 141 138 141 143 143 143 144 146 156 161 163 167 169 169 167 169 167 165 160 144 136 130 130 138 143 145 155 167 172 175 175 175 175 174 169 169 169 158 155 149 142 139 141 141 136 134 132 132 130 131 146 161 166 151 142 144 147 154 141 135 147 141 144 150 145
309 266 101 113 198 212 227 241 272 284 279 288 264 271 273 247 164 134 137 138 137 135 134 124 126 124 107 110 131 132 135 137 140 135 135 138 139 141 142 142 149 158 163 168 170 170 170 171 168 166 162 152 142 131 126 133 139 140 149 161 168 174 173 173 175 172 169 175 177 167 163 152 145 145 148 148 138 135 133 134 138 137 151 168 179 175 160 157 157 159 147 143 152 144 145 152 149
222 231 102 154 210 198 257 271 278 298 288 265 247 271 272 240 152 143 135 135 142 140 143 139 136 123 110 132 137 141 139 140 140 133 134 135 137 138 140 141 145 155 163 171 172 173 174 173 173 171 165 158 152 141 132 135 142 144 152 159 165 172 172 174 176 173 173 181 180 170 163 153 150 153 154 153 142 136 134 139 146 140 151 164 173 179 166 158 160 164 155 156 162 149 146 154 153
222 213 135 229 257 237 273 279 279 291 282 263 269 277 277 129 136 138 130 132 144 145 141 140 136 115 116 129 140 150 143 146 142 137 141 137 140 137 136 138 144 154 160 172 175 178 180 178 179 178 173 162 158 153 146 146 149 152 157 161 166 173 173 175 181 181 182 183 178 170 165 162 158 157 158 155 146 144 143 147 147 138 150 158 160 169 162 157 160 165 162 165 171 158 148 155 157
242 228 141 204 299 315 259 244 271 265 275 279 284 299 81 94 125 130 133 133 113 137 133 138 139 121 141 146 160 160 146 147 145 142 145 140 141 135 135 135 137 148 157 173 179 185 186 184 185 185 183 168 164 162 161 163 162 166 167 168 171 178 176 176 182 186 186 180 176 173 168 171 165 161 162 161 157 159 160 155 146 138 150 151 145 173 164 166 166 167 168 169 174 167 154 156 162
258 244 110 149 260 303 255 247 282 269 274 286 351 104 91 75 103 101 132 131 122 137 135 146 151 147 160 159 161 158 146 148 147 146 147 142 142 136 136 133 131 133 139 161 175 191 193 192 191 193 192 177 173 168 168 176 179 185 182 177 175 182 179 176 180 180 182 178 176 176 173 176 171 168 167 170 174 176 171 159 148 144 149 149 149 180 173 180 179 178 174 168 172 172 163 158 164
271 260 169 243 247 243 253 258 294 295 295 305 23 104 103 69 91 95 119 124 127 144 143 151 160 153 159 161 156 152 148 151 150 151 149 144 146 143 141 138 136 130 125 132 140 171 191 200 200 201 200 190 186 181 179 182 187 192 197 190 180 183 182 182 183 174 178 179 177 180 178 180 176 173 172 179 186 185 181 168 163 158 155 160 160 149 153 186 192 193 189 182 175 172 168 162 165
252 207 177 230 243 227 216 234 277 302 300 305 339 95 110 107 103 108 110 106 113 122 120 124 126 140 151 154 151 148 150 154 155 156 151 148 150 149 148 146 145 142 136 132 127 134 159 189 201 207 208 204 201 202 201 188 189 193 201 199 190 188 180 181 183 174 178 182 183 186 182 180 178 178 180 188 188 185 183 177 182 174 162 164 165 152 152 173 199 205 200 192 180 173 171 165 164
207 156 176 224 222 224 211 264 291 294 287 283 292 90 117 125 126 118 113 102 105 102 105 116 117 125 139 146 148 149 154 156 159 160 155 153 153 154 153 152 153 153 153 148 141 133 136 156 180 196 201 209 211 217 215 199 193 195 202 202 196 192 181 180 182 178 181 187 192 191 187 182 181 186 191 195 191 189 184 181 195 186 169 166 167 148 139 161 191 204 199 186 174 169 173 171 165
217 194 217 238 234 285 290 296 291 299 313 301 341 110 124 130 135 124 123 124 116 120 127 121 121 131 140 146 152 154 156 156 158 159 156 156 157 159 158 156 157 158 162 164 159 151 144 151 162 173 183 198 207 213 212 206 198 196 200 203 201 192 185 191 191 187 189 192 195 194 193 190 191 195 193 193 194 200 194 189 197 195 184 174 163 121 86 121 177 187 188 178 164 158 165 174 171
215 188 204 231 247 303 275 283 288 311 1 349 16 87 120 124 132 132 129 122 120 147 147 143 142 146 150 153 156 158 158 156 159 161 158 161 162 163 164 161 159 159 159 161 165 163 158 166 174 172 174 180 190 198 197 205 201 197 199 201 203 194 191 199 197 193 192 193 196 197 199 198 202 204 201 201 202 209 208 205 205 200 194 182 166 129 82 99 151 173 182 172 156 148 147 154 160
258 252 238 230 234 259 264 269 278 295 16 8 16 46 98 95 115 138 137 133 173 166 155 153 154 157 160 161 160 161 161 161 165 166 163 166 167 166 166 164 162 162 160 156 159 164 167 178 187 189 186 175 176 181 177 192 199 200 204 202 203 200 196 201 203 196 192 193 198 201 204 204 206 208 216 221 219 216 213 216 215 207 197 190 175 146 100 114 124 133 158 161 152 143 134 134 137
241 270 259 247 239 238 261 265 266 272 42 26 13 18 41 78 85 137 140 155 172 166 160 158 160 163 164 163 163 164 166 167 169 169 168 169 170 171 170 168 166 165 167 165 162 166 174 184 191 201 202 188 182 177 169 176 189 201 208 205 205 206 201 204 210 202 194 195 201 204 207 211 209 210 219 227 229 224 221 219 217 213 200 193 184 158 123 125 124 120 129 142 148 141 127 124 122
217 252 259 253 244 238 251 252 245 262 68 58 16 27 28 70 89 124 117 155 168 164 160 159 159 160 161 161 163 165 167 169 170 171 172 171 172 174 174 172 171 172 174 175 176 178 184 193 194 206 211 203 192 184 178 175 182 197 207 209 208 208 206 210 216 208 199 200 206 207 209 215 215 216 223 230 234 230 232 224 217 217 206 194 188 173 149 138 134 132 130 134 141 140 128 123 116
221 237 249 247 245 237 236 222 207 256 70 62 22 31 6 62 111 111 96 138 157 160 156 153 152 154 157 159 162 165 167 171 171 171 172 172 172 173 175 175 174 178 182 184 190 190 194 201 202 214 219 213 199 190 186 184 184 192 204 211 210 209 211 219 222 215 209 209 216 216 215 220 221 225 231 240 243 237 233 222 216 216 209 201 191 182 172 159 156 153 148 145 144 144 137 130 126
226 228 239 248 237 204 198 186 170 199 116 77 37 347 334 73 108 95 120 138 148 154 153 152 152 154 158 160 163 165 167 169 169 169 170 170 172 174 176 178 178 180 186 192 199 199 200 203 209 218 224 222 207 193 189 190 189 192 201 206 208 210 216 227 229 224 218 217 225 227 227 229 231 235 235 240 243 239 232 218 215 213 210 206 194 186 182 175 173 174 174 171 163 161 155 150 151
275 242 231 236 207 178 173 170 157 163 163 106 84 288 307 50 104 100 159 143 145 149 150 155 156 158 162 162 166 168 168 169 169 169 169 170 174 178 178 179 184 186 193 201 203 207 204 204 208 212 220 218 203 191 186 188 187 189 195 199 206 211 218 229 233 232 228 224 229 233 236 237 240 241 233 234 231 229 226 214 213 214 211 208 197 189 187 184 181 182 186 190 193 191 186 189 184
300 262 218 225 193 169 170 159 152 156 175 145 125 202 307 353 95 162 169 150 148 149 151 159 161 162 164 165 169 171 171 171 172 173 173 175 179 185 185 186 192 192 199 208 209 212 211 212 215 213 216 210 198 192 188 189 185 182 184 188 201 211 220 228 233 236 235 234 235 238 242 243 243 239 231 230 221 213 212 208 212 214 211 210 204 196 196 194 186 184 186 191 199 201 197 206 205
302 274 179 308 17 45 204 168 156 150 159 179 128 16 316 322 164 161 163 157 152 154 158 164 166 166 167 169 172 172 175 176 178 182 181 182 187 193 194 192 198 200 204 215 217 219 219 220 220 213 204 196 194 193 191 193 189 189 189 186 193 203 215 223 228 232 234 236 236 238 244 244 236 227 227 228 215 203 203 204 210 217 214 213 211 206 209 208 193 187 187 189 196 202 196 198 209
297 303 87 348 10 343 247 199 171 151 164 182 145 10 281 274 247 173 161 165 159 157 164 170 169 169 170 172 175 176 179 181 182 186 187 189 195 200 201 198 202 209 216 220 219 224 228 222 212 202 192 187 188 188 191 193 193 202 209 211 213 214 212 210 217 221 227 232 231 232 234 235 229 219 221 224 217 209 205 204 202 213 219 216 215 213 218 221 205 190 189 192 198 209 203 195 212
313 346 11 32 7 287 269 211 173 174 197 176 144 187 253 263 260 227 171 170 167 163 169 173 171 172 174 175 178 179 181 184 185 187 191 195 198 202 207 206 208 215 218 216 213 221 229 225 212 201 195 192 192 193 202 206 204 213 232 236 225 223 211 197 201 206 209 216 222 226 226 228 229 225 223 221 221 219 215 209 202 207 216 216 215 213 217 223 217 196 190 194 198 209 210 200 214
9 27 327 346 229 266 297 282 181 192 209 166 144 190 254 264 257 250 202 177 175 174 175 175 174 175 176 178 180 181 180 182 185 188 191 196 198 202 211 215 215 212 208 209 208 213 224 226 217 205 202 201 203 208 215 220 217 217 229 215 200 206 201 192 195 198 194 188 201 217 222 228 229 229 230 225 223 226 225 217 209 210 213 216 216 215 217 220 220 201 194 199 199 204 209 197 203
2 84 265 279 256 295 320 310 219 199 165 166 170 177 247 269 241 238 254 203 183 177 179 177 176 177 177 180 181 180 179 179 182 187 190 194 197 202 215 223 215 204 204 206 204 210 213 208 199 197 203 209 213 213 212 212 206 196 188 177 171 176 182 191 189 187 194 190 186 203 213 221 225 226 228 228 226 229 234 225 219 221 217 218 221 218 218 220 220 209 203 207 204 205 209 205 204
324 6 331 260 240 285 297 304 268 194 160 190 195 189 213 241 232 227 261 223 190 175 179 180 176 178 179 181 181 180 180 179 182 186 190 194 197 203 214 220 210 200 200 201 200 199 191 189 182 175 185 193 193 190 184 176 163 157 159 160 160 161 167 185 188 183 199 208 216 230 232 221 221 224 223 225 225 229 233 226 223 229 222 219 222 219 218 216 215 214 211 211 211 209 211 215 218
258 301 356 299 270 238 263 282 272 180 173 187 184 208 229 251 287 262 236 206 184 169 175 179 176 180 182 181 182 181 181 182 185 190 193 195 199 205 209 211 207 199 197 199 199 194 185 184 175 165 165 162 160 164 160 148 140 140 143 145 146 153 165 183 192 201 223 242 244 244 252 249 233 230 226 222 221 225 229 224 221 226 223 220 222 221 219 216 214 216 216 213 216 217 216 221 224
200 223 163 225 288 277 264 267 279 188 172 174 176 205 224 242 290 267 205 182 167 161 171 179 180 183 185 184 183 184 183 186 190 193 196 198 202 207 207 206 205 201 198 199 199 197 194 187 175 166 162 159 157 158 151 140 135 136 137 135 129 135 154 175 193 214 237 254 253 245 247 253 250 238 233 226 219 217 224 226 223 223 224 224 227 224 220 221 220 221 221 218 219 221 221 224 224
170 111 126 219 264 303 281 280 319 330 143 106 184 214 250 253 281 264 242 233 180 175 172 180 187 187 187 187 186 187 188 190 192 194 197 200 204 206 206 203 202 202 201 201 201 200 198 191 183 172 166 166 164 159 152 146 148 150 145 137 124 120 125 132 148 171 223 300 294 272 259 257 252 240 236 232 227 217 209 217 219 223 228 226 228 229 223 222 223 225 227 225 223 223 222 222 223
120 91 13 296 286 304 293 299 328 5 108 346 15 39 312 285 286 287 278 277 236 228 198 184 190 192 192 191 190 191 192 192 191 191 194 198 202 205 205 202 201 204 203 202 204 203 199 192 185 178 171 169 164 160 157 156 169 183 157 144 133 121 117 109 103 94 77 65 56 20 345 303 264 249 240 233 234 228 211 200 193 208 224 223 225 232 231 224 222 227 232 233 230 227 223 221 222
92 87 48 307 286 294 308 320 330 13 85 304 4 42 301 281 267 270 264 251 253 249 231 206 194 193 195 195 193 192 192 191 189 190 193 197 202 204 203 202 202 206 206 203 203 203 200 191 184 182 176 171 166 165 164 164 180 194 170 156 159 143 138 123 92 78 72 68 66 59 47 28 348 288 256 240 237 235 228 215 199 199 212 221 225 232 239 234 227 230 237 242 239 233 230 223 221
91 95 95 282 282 84 316 311 327 3 61 191 46 19 296 292 298 263 221 219 235 246 245 241 216 199 199 199 197 195 191 190 190 190 193 197 201 203 203 203 202 205 207 204 203 203 202 196 188 184 181 177 175 175 173 175 185 193 189 186 198 200 180 154 86 71 66 64 62 56 50 40 23 333 262 247 238 237 240 236 227 221 222 229 233 236 240 240 237 239 243 248 247 241 238 231 225
294 162 153 233 275 208 197 265 324 354 351 79 77 16 319 308 317 295 264 228 232 243 242 250 246 219 205 202 200 198 194 193 193 190 193 196 200 205 205 204 202 203 207 207 204 204 205 202 191 187 187 183 184 186 181 184 192 198 200 199 206 209 196 183 84 67 61 61 59 54 51 44 35 23 316 253 242 242 246 249 250 251 250 250 250 250 248 245 243 245 247 253 255 250 248 244 237
307 246 198 210 242 243 226 313 20 29 342 310 70 32 301 308 308 271 281 318 292 261 234 239 247 235 212 205 202 200 199 198 197 193 194 198 203 207 206 203 202 202 207 209 207 204 207 206 195 189 192 190 190 192 187 192 204 210 212 209 213 212 198 188 90 65 56 61 60 56 53 48 46 43 36 30 266 251 253 262 264 267 273 275 273 269 265 261 255 250 248 249 253 253 255 255 249
301 248 203 202 220 235 260 101 93 101 254 284 51 142 253 306 301 259 268 301 291 278 244 237 244 238 215 207 203 201 201 198 197 194 194 198 203 206 205 203 204 205 207 208 206 206 209 209 200 192 196 198 195 195 193 197 209 218 219 217 221 218 206 199 129 101 27 51 56 53 50 44 47 50 50 53 50 40 308 269 269 270 273 278 281 280 276 274 267 260 254 251 253 252 253 259 259
234 242 195 212 232 207 203 141 147 199 227 315 4 123 227 286 266 260 276 296 294 286 266 245 243 236 219 210 205 203 203 198 195 192 193 199 203 207 209 207 206 208 208 207 205 208 211 212 208 199 199 203 200 198 200 202 209 216 217 213 218 218 214 219 202 219 272 352 26 36 43 42 42 46 53 60 61 59 62 71 67 293 284 284 286 284 278 275 270 262 255 252 255 258 258 261 265
242 238 191 200 189 171 157 113 136 191 68 321 314 49 240 275 272 284 297 277 287 285 274 257 241 233 220 210 205 205 208 205 199 196 197 201 205 210 213 211 209 208 208 208 208 210 214 214 213 208 202 204 206 204 204 206 210 216 217 215 218 217 214 218 224 241 258 264 279 331 18 36 41 42 46 56 64 64 64 69 72 72 54 14 344 322 293 274 266 259 254 251 252 258 262 263 265
244 207 163 71 90 118 106 102 110 41 49 272 270 351 127 273 284 299 308 273 272 275 273 256 239 234 222 210 204 202 202 201 201 200 201 203 207 211 214 212 209 207 209 210 210 213 216 215 215 213 209 207 210 210 209 211 214 217 219 219 222 221 216 218 227 241 246 250 258 266 300 358 34 38 37 43 52 54 51 51 52 56 54 41 19 348 318 290 275 265 260 256 253 254 258 260 264
208 137 138 19 17 21 34 68 85 57 340 262 248 195 146 279 286 265 241 251 267 279 286 277 245 229 222 214 208 206 204 202 201 201 203 205 208 210 211 211 209 208 208 209 211 215 217 217 216 215 214 212 215 216 214 215 218 221 221 222 225 224 222 224 229 237 240 245 253 256 267 289 348 20 24 28 36 38 31 28 27 23 20 15 5 340 312 295 286 279 273 266 261 258 256 257 260
84 96 114 54 338 1 21 355 39 80 258 264 259 167 134 214 271 256 249 262 275 271 270 283 261 217 218 215 212 214 214 215 211 202 201 203 204 205 206 209 210 208 207 208 214 217 217 218 217 214 215 216 220 223 219 219 222 224 224 224 227 225 227 230 231 236 241 242 246 249 253 261 275 292 324 353 4 10 9 10 9 4 358 352 346 336 322 303 286 277 272 268 266 263 260 259 259
81 85 81 85 327 5 11 314 332 214 250 259 259 127 136 232 255 257 264 272 283 284 274 280 256 210 213 215 215 219 219 221 219 207 199 199 201 202 204 207 209 210 210 212 214 216 217 218 217 215 217 219 224 227 223 222 224 227 227 226 228 226 229 233 233 238 243 242 241 240 247 256 265 276 294 312 323 331 339 350 354 351 347 341 337 334 330 322 309 294 282 274 269 265 263 261 260
130 145 117 125 118 61 293 274 284 258 262 261 241 195 236 283 264 241 239 258 283 296 307 310 281 225 214 215 215 219 221 221 222 214 203 199 200 202 205 208 210 212 214 214 215 215 216 217 217 217 219 222 225 227 226 224 225 228 229 228 230 230 232 236 238 242 246 247 243 241 244 250 257 267 280 294 306 316 325 334 336 334 332 329 329 329 327 325 320 312 302 292 282 274 267 263 261
183 169 133 141 147 148 211 224 216 245 266 280 284 242 203 213 256 258 273 320 341 355 5 2 343 312 247 234 228 221 219 218 219 218 211 203 201 204 206 207 210 213 214 213 214 215 216 216 217 217 221 224 225 226 225 224 226 229 230 228 230 233 238 242 243 245 249 250 247 244 243 245 250 257 265 279 294 306 314 319 319 318 319 320 321 321 322 323 322 321 318 308 296 287 277 269 265
249 145 104 145 180 164 183 195 188 188 254 290 295 246 210 199 269 309 356 8 23 35 35 28 16 17 26 14 346 259 222 214 212 213 211 208 205 205 207 209 212 213 213 213 213 214 215 216 217 218 223 228 229 227 225 223 225 230 231 230 230 234 238 241 243 245 247 249 248 247 247 246 246 250 258 269 280 291 298 302 305 308 311 312 313 318 324 330 330 330 330 325 313 298 288 281 275
248 121 162 226 168 141 164 261 221 100 204 269 256 248 286 333 312 332 27 30 32 42 40 37 37 38 41 39 36 33 24 232 215 210 208 209 209 209 210 211 214 214 213 213 214 215 215 216 217 218 223 229 231 229 226 224 225 230 233 232 231 234 236 239 243 245 247 248 247 246 247 246 244 246 252 258 267 277 286 294 299 303 305 307 311 321 330 333 333 332 330 329 326 316 301 291 285
96 202 229 239 58 84 120 289 345 35 240 273 298 238 272 341 300 331 29 34 29 41 44 39 42 44 40 37 41 41 38 36 29 217 216 214 211 212 215 215 216 216 217 216 216 216 216 216 218 220 223 229 231 230 227 225 226 229 232 232 231 231 232 235 240 244 246 247 247 246 246 246 247 248 249 253 262 273 284 291 296 299 301 304 314 325 330 330 329 329 327 325 324 322 315 304 295
69 213 257 220 72 347 90 161 257 262 236 281 309 278 258 204 223 342 31 37 35 43 47 39 35 40 37 32 36 39 39 39 41 37 266 229 218 215 217 219 218 217 217 218 218 217 216 217 219 222 227 231 231 230 228 226 227 229 231 231 231 230 228 229 232 237 242 245 247 248 249 250 250 250 251 256 263 273 283 288 293 296 298 307 319 326 327 325 324 323 322 321 318 317 315 311 305
30 16 351 31 153 176 176 180 173 175 207 246 304 314 288 228 209 127 79 69 73 67 60 48 31 33 35 31 29 30 30 29 30 32 30 357 237 227 222 220 221 221 220 219 218 217 217 218 219 221 227 231 231 231 229 227 228 229 231 230 228 227 225 224 227 232 238 243 246 248 249 250 250 251 256 261 266 274 283 287 290 293 300 314 322 323 321 320 319 318 317 315 313 312 311 310 308
4 352 335 333 322 225 180 297 132 133 161 188 219 281 266 249 214 139 111 99 102 97 88 74 45 38 35 28 21 17 15 13 13 17 23 27 11 270 239 229 226 224 222 220 218 218 218 219 220 221 224 227 229 231 230 229 228 228 230 229 226 224 223 224 225 230 236 240 243 245 246 247 248 253 258 262 269 278 283 285 287 295 309 318 317 315 315 314 314 313 311 309 307 306 306 306 305
194 226 266 268 266 294 355 291 288 110 140 169 170 229 257 251 204 149 121 116 125 107 95 89 60 45 32 21 13 5 2 3 7 10 10 11 15 10 316 253 236 227 224 222 220 219 219 220 222 223 225 227 229 232 232 230 227 228 231 231 226 224 224 225 226 229 233 236 240 242 244 246 250 255 259 264 273 279 282 285 293 306 312 312 309 308 309 308 308 308 305 303 301 299 300 301 301